Weather History for Plymouth, NH

Change the Weather History Date:

Thursday, November 15, 2012

  Actual Average (KLCI) Record (KLCI)
Temperature  
Mean Temperature 30 °F -  
Max Temperature 41 °F 45 °F 66 °F (1989)
Min Temperature 19 °F 28 °F 11 °F (1986)
Degree Days  
Heating Degree Days 35    
Moisture  
Dew Point 23 °F    
Average Humidity 80    
Maximum Humidity 99    
Minimum Humidity 48    
Precipitation  
Precipitation 0.00 in - - ()
Sea Level Pressure  
Sea Level Pressure 30.41 in    
Wind  
Wind Speed 1 mph (WNW)    
Max Wind Speed 6 mph    
Max Gust Speed -    
Visibility 10 miles    
Events      
Averages and records for this station are not official NWS values.
T = Trace of Precipitation, MM = Missing Value Source: NWS Daily Summary

Daily Weather History Graph

Daily Weather History Graph

Search for Another Location

Airport:

Trip Planner

Search our weather history database for the weather conditions in past years. The results will help you decide how hot, cold, wet, or windy it might be!

Date:

Astronomy

Nov. 15, 2012 Rise Set
Actual Time 6:42 AM EST 4:20 PM EST
Civil Twilight 6:10 AM EST 4:52 PM EST
Nautical Twilight 5:36 AM EST 5:26 PM EST
Astronomical Twilight 5:02 AM EST 6:00 PM EST
Moon 8:36 AM EST (11/15) 6:06 PM EST (11/15)
Length of Visible Light 10h 41m
Length of Day
9h 38m
Waxing Crescent, 5% of the Moon is Illuminated
Nov 15
Waxing Crescent
Nov 20
First Quarter
Nov 28
Full
Dec 6
Last Quarter
Dec 13
New

Hourly Weather History & Observations

Time (EST) Temp. Windchill Dew Point Humidity Pressure Visibility Wind Dir Wind Speed Gust Speed Precip Events Conditions
12:15 AM 22.8 °F - 22.1 °F 97% 30.51 in 10.0 mi Calm Calm - N/A   Clear
12:35 AM 22.6 °F - 21.9 °F 97% 30.50 in 10.0 mi Calm Calm - N/A   Clear
12:55 AM 22.5 °F - 21.7 °F 97% 30.50 in 10.0 mi Calm Calm - N/A   Clear
1:15 AM 22.3 °F - 21.6 °F 97% 30.49 in 10.0 mi Calm Calm - N/A   Clear
1:35 AM 22.1 °F - 21.4 °F 97% 30.49 in 10.0 mi Calm Calm - N/A   Clear
1:55 AM 21.9 °F - 21.2 °F 97% 30.50 in 10.0 mi Calm Calm - N/A   Clear
2:15 AM 21.6 °F - 20.7 °F 96% 30.49 in 10.0 mi Calm Calm - N/A   Clear
2:35 AM 21.2 °F - 20.3 °F 96% 30.49 in 10.0 mi Calm Calm - N/A   Clear
2:55 AM 21.2 °F - 20.3 °F 96% 30.50 in 10.0 mi Calm Calm - N/A   Clear
3:15 AM 21.0 °F - 20.1 °F 96% 30.50 in 10.0 mi Calm Calm - N/A   Clear
3:35 AM 20.8 °F - 19.9 °F 96% 30.50 in 10.0 mi Calm Calm - N/A   Clear
3:55 AM 20.3 °F - 19.4 °F 96% 30.50 in 10.0 mi Calm Calm - N/A   Clear
4:15 AM 20.3 °F - 19.4 °F 96% 30.49 in 10.0 mi Calm Calm - N/A   Clear
4:35 AM 19.9 °F - 19.0 °F 96% 30.48 in 10.0 mi Calm Calm - N/A   Clear
4:55 AM 20.1 °F - 19.2 °F 96% 30.47 in 10.0 mi Calm Calm - N/A   Clear
5:15 AM 19.9 °F - 19.0 °F 96% 30.46 in 10.0 mi Calm Calm - N/A   Clear
5:55 AM 20.1 °F - 19.2 °F 96% 30.48 in 10.0 mi Calm Calm - N/A   Clear
6:15 AM 20.3 °F - 19.4 °F 96% 30.48 in 10.0 mi Calm Calm - N/A   Clear
6:35 AM 19.9 °F - 18.9 °F 96% 30.49 in 10.0 mi Calm Calm - N/A   Clear
6:55 AM 20.1 °F - 19.2 °F 96% 30.49 in 10.0 mi Calm Calm - N/A   Clear
7:15 AM 21.0 °F - 19.9 °F 96% 30.49 in 10.0 mi Calm Calm - N/A   Clear
7:35 AM 22.1 °F - 21.2 °F 96% 30.50 in 10.0 mi Calm Calm - N/A   Clear
7:55 AM 23.9 °F - 23.0 °F 96% 30.51 in 10.0 mi Calm Calm - N/A   Clear
8:15 AM 25.2 °F - 23.9 °F 95% 30.49 in 10.0 mi Calm Calm - N/A   Clear
8:35 AM 26.2 °F - 24.8 °F 94% 30.49 in 10.0 mi Calm Calm - N/A   Clear
8:55 AM 27.7 °F - 25.0 °F 90% 30.48 in 10.0 mi Calm Calm - N/A   Clear
9:15 AM 29.7 °F - 26.1 °F 86% 30.47 in 10.0 mi Calm Calm - N/A   Clear
9:35 AM 31.1 °F - 26.4 °F 83% 30.46 in 10.0 mi Calm Calm - N/A   Clear
9:55 AM 32.2 °F - 26.1 °F 78% 30.45 in 10.0 mi Calm Calm - N/A   Clear
10:15 AM 33.4 °F - 26.1 °F 74% 30.44 in 10.0 mi Calm Calm - N/A   Clear
10:35 AM 35.4 °F - 26.2 °F 69% 30.43 in 10.0 mi Calm Calm - N/A   Clear
10:55 AM 36.7 °F - 25.0 °F 63% 30.42 in 10.0 mi Calm Calm - N/A   Clear
11:15 AM 37.8 °F - 24.1 °F 58% 30.40 in 10.0 mi Calm Calm - N/A   Clear
11:35 AM 39.0 °F - 23.9 °F 55% 30.40 in 10.0 mi Calm Calm - N/A   Clear
11:55 AM 40.1 °F - 23.9 °F 52% 30.39 in 10.0 mi Calm Calm - N/A   Clear
12:15 PM 41.2 °F 39.2 °F 23.0 °F 48% 30.38 in 10.0 mi West 3.5 mph - N/A   Clear
12:35 PM 41.0 °F - 22.5 °F 48% 30.37 in 10.0 mi Calm Calm - N/A   Clear
12:55 PM 41.4 °F 39.4 °F 24.4 °F 51% 30.36 in 10.0 mi West 3.5 mph - N/A   Clear
1:15 PM 41.7 °F - 23.9 °F 49% 30.36 in 10.0 mi Calm Calm - N/A   Clear
1:35 PM 41.9 °F - 23.9 °F 49% 30.35 in 10.0 mi Calm Calm - N/A   Clear
1:55 PM 41.9 °F 39.0 °F 24.6 °F 50% 30.34 in 10.0 mi WNW 4.6 mph - N/A   Clear
2:15 PM 41.5 °F 39.6 °F 24.4 °F 51% 30.33 in 10.0 mi WNW 3.5 mph - N/A   Clear
2:35 PM 41.2 °F 39.2 °F 25.0 °F 53% 30.32 in 10.0 mi West 3.5 mph - N/A   Clear
2:55 PM 41.0 °F 37.1 °F 25.0 °F 53% 30.33 in 10.0 mi West 5.8 mph - N/A   Clear
3:15 PM 40.8 °F 37.8 °F 25.2 °F 54% 30.33 in 10.0 mi West 4.6 mph - N/A   Clear
3:35 PM 40.3 °F 37.1 °F 25.2 °F 55% 30.34 in 10.0 mi WSW 4.6 mph - N/A   Clear
3:55 PM 39.7 °F 37.6 °F 25.2 °F 56% 30.33 in 10.0 mi West 3.5 mph - N/A   Clear
4:15 PM 39.2 °F 37.0 °F 25.2 °F 57% 30.33 in 10.0 mi West 3.5 mph - N/A   Clear
4:35 PM 38.5 °F 36.1 °F 25.2 °F 59% 30.33 in 10.0 mi West 3.5 mph - N/A   Clear
4:55 PM 37.2 °F 33.6 °F 25.5 °F 63% 30.33 in 10.0 mi WNW 4.6 mph - N/A   Clear
5:15 PM 36.9 °F 33.1 °F 25.3 °F 63% 30.33 in 10.0 mi WNW 4.6 mph - N/A   Clear
5:35 PM 35.2 °F 31.2 °F 25.2 °F 67% 30.32 in 10.0 mi NW 4.6 mph - N/A   Clear
5:55 PM 34.9 °F 32.0 °F 25.3 °F 68% 30.33 in 10.0 mi NW 3.5 mph - N/A   Clear
6:15 PM 34.9 °F 30.8 °F 25.3 °F 68% 30.32 in 10.0 mi NNW 4.6 mph - N/A   Clear
6:55 PM 31.5 °F - 26.6 °F 82% 30.33 in 10.0 mi Calm Calm - N/A   Clear
7:15 PM 30.6 °F - 26.6 °F 85% 30.33 in 10.0 mi Calm Calm - N/A   Clear
7:55 PM 29.5 °F - 26.4 °F 88% 30.32 in 10.0 mi Calm Calm - N/A   Clear
8:35 PM 28.6 °F - 26.2 °F 91% 30.33 in 10.0 mi Calm Calm - N/A   Clear
8:55 PM 28.2 °F - 26.2 °F 92% 30.33 in 10.0 mi Calm Calm - N/A   Clear
10:15 PM 26.1 °F - 25.2 °F 96% 30.32 in 10.0 mi Calm Calm - N/A   Clear
10:35 PM 26.2 °F - 25.5 °F 97% 30.32 in 10.0 mi Calm Calm - N/A   Clear
10:55 PM 25.7 °F - 25.2 °F 98% 30.33 in 10.0 mi Calm Calm - N/A   Clear
11:15 PM 25.5 °F - 24.8 °F 97% 30.32 in 10.0 mi Calm Calm - N/A   Clear
11:35 PM 24.8 °F - 24.4 °F 99% 30.32 in 10.0 mi Calm Calm - N/A   Clear
11:55 PM 25.0 °F - 24.4 °F 98% 30.31 in 10.0 mi Calm Calm - N/A   Clear